Radiation Dose at Monitoring Post of Fukushima Daini Nuclear Power Station
Date,Time,MP-1(microSv/h),MP-2(microSv/h),MP-3(microSv/h),MP-4(microSv/h),MP-5(microSv/h),MP-6(microSv/h),MP-7(microSv/h),Wind Direction,Wind Velocity(m/s),Rain
2018/09/21,00:00,0.309,0.193,0.305,0.294,0.286,0.157,0.098,-,CALM,Yes
2018/09/21,00:10,0.310,0.191,0.305,0.296,0.282,0.155,0.099,-,CALM,Yes
2018/09/21,00:20,0.307,0.192,0.304,0.293,0.284,0.156,0.098,-,CALM,Yes
2018/09/21,00:30,0.310,0.192,0.304,0.295,0.280,0.155,0.097,-,CALM,Yes
2018/09/21,00:40,0.304,0.190,0.303,0.293,0.284,0.154,0.097,-,CALM,Yes
2018/09/21,00:50,0.306,0.191,0.305,0.294,0.281,0.154,0.096,-,CALM,No
2018/09/21,01:00,0.304,0.190,0.302,0.291,0.283,0.153,0.096,-,CALM,No
2018/09/21,01:10,0.307,0.189,0.303,0.292,0.280,0.154,0.096,-,CALM,No
2018/09/21,01:20,0.305,0.187,0.300,0.291,0.283,0.153,0.095,-,CALM,Yes
2018/09/21,01:30,0.307,0.190,0.303,0.294,0.281,0.153,0.096,-,CALM,Yes
2018/09/21,01:40,0.305,0.190,0.301,0.292,0.284,0.152,0.096,east-southeast,1.8,Yes
2018/09/21,01:50,0.307,0.190,0.304,0.292,0.280,0.153,0.097,-,CALM,Yes
2018/09/21,02:00,0.305,0.190,0.302,0.293,0.283,0.154,0.097,-,CALM,Yes
2018/09/21,02:10,0.307,0.190,0.303,0.293,0.281,0.154,0.097,-,CALM,Yes
2018/09/21,02:20,0.305,0.191,0.301,0.294,0.283,0.155,0.097,-,CALM,Yes
2018/09/21,02:30,0.308,0.191,0.302,0.293,0.281,0.156,0.099,-,CALM,Yes
2018/09/21,02:40,0.306,0.192,0.304,0.293,0.284,0.156,0.098,northwest,0.8,Yes
2018/09/21,02:50,0.309,0.191,0.303,0.293,0.281,0.155,0.098,west-northwest,1.7,Yes
2018/09/21,03:00,0.306,0.192,0.303,0.294,0.282,0.155,0.097,-,CALM,Yes
2018/09/21,03:10,0.305,0.192,0.302,0.292,0.280,0.154,0.097,-,CALM,No
2018/09/21,03:20,0.307,0.190,0.302,0.293,0.285,0.154,0.096,-,CALM,Yes
2018/09/21,03:30,0.307,0.189,0.301,0.291,0.281,0.153,0.096,-,CALM,Yes
2018/09/21,03:40,0.305,0.189,0.303,0.292,0.282,0.152,0.096,northwest,0.8,Yes
2018/09/21,03:50,0.305,0.189,0.301,0.293,0.279,0.153,0.095,-,CALM,Yes
2018/09/21,04:00,0.305,0.190,0.301,0.293,0.282,0.152,0.096,-,CALM,Yes
2018/09/21,04:10,0.304,0.190,0.299,0.291,0.280,0.152,0.095,north-northeast,1.9,Yes
2018/09/21,04:20,0.305,0.190,0.303,0.294,0.282,0.153,0.096,north-northeast,1.5,Yes
2018/09/21,04:30,0.305,0.191,0.301,0.292,0.279,0.153,0.096,northeast,1.7,Yes
2018/09/21,04:40,0.307,0.190,0.303,0.293,0.283,0.153,0.097,northeast,1.8,Yes
2018/09/21,04:50,0.305,0.190,0.302,0.291,0.280,0.153,0.096,north-northeast,1.0,No
2018/09/21,05:00,0.306,0.190,0.303,0.293,0.280,0.153,0.096,north-northeast,1.1,No
2018/09/21,05:10,0.303,0.190,0.300,0.291,0.279,0.154,0.095,north-northwest,1.5,No
2018/09/21,05:20,0.305,0.189,0.302,0.293,0.281,0.152,0.095,north,1.5,No
2018/09/21,05:30,0.303,0.187,0.300,0.290,0.279,0.152,0.094,north-northwest,1.2,No
2018/09/21,05:40,0.305,0.188,0.300,0.293,0.281,0.152,0.095,north-northwest,1.7,Yes
2018/09/21,05:50,0.303,0.188,0.301,0.291,0.279,0.153,0.096,north,1.5,Yes
2018/09/21,06:00,0.305,0.189,0.301,0.292,0.282,0.152,0.096,north-northwest,1.1,Yes
2018/09/21,06:10,0.303,0.188,0.301,0.292,0.280,0.153,0.095,north,1.7,No
2018/09/21,06:20,0.305,0.189,0.300,0.291,0.281,0.152,0.095,north-northwest,0.9,Yes
2018/09/21,06:30,0.303,0.189,0.302,0.291,0.280,0.153,0.096,north,0.7,Yes
2018/09/21,06:40,0.306,0.189,0.301,0.294,0.281,0.153,0.096,-,CALM,Yes
2018/09/21,06:50,0.303,0.190,0.304,0.292,0.280,0.154,0.096,northeast,0.8,Yes
2018/09/21,07:00,0.307,0.191,0.302,0.292,0.283,0.153,0.096,north,1.8,No
2018/09/21,07:10,0.304,0.190,0.302,0.292,0.279,0.153,0.096,north-northeast,2.0,No
2018/09/21,07:20,0.306,0.190,0.300,0.293,0.282,0.153,0.095,north,2.1,Yes
2018/09/21,07:30,0.303,0.188,0.302,0.291,0.279,0.152,0.096,north,1.8,Yes
2018/09/21,07:40,0.306,0.190,0.301,0.291,0.282,0.153,0.096,north-northwest,2.6,Yes
2018/09/21,07:50,0.303,0.189,0.302,0.290,0.279,0.154,0.096,north-northwest,3.2,Yes
2018/09/21,08:00,0.307,0.192,0.302,0.293,0.282,0.154,0.098,north,3.8,Yes
2018/09/21,08:10,0.305,0.191,0.302,0.292,0.282,0.153,0.098,north,3.7,Yes
2018/09/21,08:20,0.308,0.193,0.302,0.294,0.283,0.157,0.100,north,3.7,Yes
2018/09/21,08:30,0.306,0.190,0.302,0.293,0.283,0.157,0.099,north,4.7,Yes
2018/09/21,08:40,0.306,0.193,0.302,0.295,0.283,0.156,0.100,north,4.2,Yes
2018/09/21,08:50,0.306,0.192,0.300,0.291,0.284,0.155,0.100,north,4.3,Yes
2018/09/21,09:00,0.305,0.193,0.300,0.294,0.280,0.157,0.103,southeast,1.4,Yes
2018/09/21,09:10,0.306,0.195,0.302,0.293,0.286,0.157,0.104,east-southeast,3.1,Yes
2018/09/21,09:20,0.308,0.195,0.305,0.296,0.286,0.158,0.101,east-southeast,2.0,Yes
2018/09/21,09:30,0.308,0.194,0.304,0.294,0.287,0.157,0.101,east-southeast,2.1,No
2018/09/21,09:40,0.306,0.194,0.302,0.295,0.285,0.155,0.100,south-southeast,0.9,No
2018/09/21,09:50,0.308,0.194,0.303,0.294,0.286,0.156,0.100,east-southeast,1.1,Yes
2018/09/21,10:00,0.306,0.195,0.305,0.297,0.285,0.158,0.102,east-southeast,2.1,Yes
2018/09/21,10:10,0.308,0.195,0.306,0.295,0.289,0.158,0.103,east-southeast,2.4,Yes
2018/09/21,10:20,0.307,0.196,0.308,0.297,0.287,0.158,0.103,east,2.7,Yes
2018/09/21,10:30,0.309,0.197,0.305,0.295,0.289,0.160,0.103,east,1.5,Yes
2018/09/21,10:40,0.307,0.198,0.306,0.297,0.288,0.158,0.103,southeast,5.9,Yes
2018/09/21,10:50,0.308,0.195,0.304,0.294,0.287,0.158,0.102,east,3.1,Yes
2018/09/21,11:00,0.306,0.195,0.306,0.296,0.287,0.158,0.102,east,3.7,Yes
2018/09/21,11:10,0.307,0.194,0.302,0.295,0.283,0.156,0.102,east-southeast,5.2,Yes
2018/09/21,11:20,0.305,0.195,0.303,0.294,0.285,0.157,0.101,east-southeast,5.4,Yes
2018/09/21,11:30,0.305,0.194,0.302,0.294,0.284,0.156,0.102,east,4.2,Yes
2018/09/21,11:40,0.304,0.195,0.305,0.294,0.286,0.157,0.101,east,3.9,Yes
2018/09/21,11:50,0.303,0.193,0.302,0.295,0.282,0.157,0.102,east,4.9,Yes
2018/09/21,12:00,0.307,0.194,0.303,0.292,0.285,0.156,0.101,east-northeast,3.9,Yes
2018/09/21,12:10,0.304,0.193,0.302,0.295,0.284,0.157,0.100,east,3.7,Yes
2018/09/21,12:20,0.304,0.193,0.301,0.292,0.282,0.155,0.100,east-northeast,2.8,Yes
2018/09/21,12:30,0.303,0.192,0.302,0.292,0.282,0.155,0.101,east,5.5,Yes
2018/09/21,12:40,0.300,0.193,0.299,0.291,0.281,0.155,0.101,east-southeast,6.2,Yes
2018/09/21,12:50,0.303,0.193,0.302,0.290,0.284,0.155,0.101,east-southeast,6.9,Yes
2018/09/21,13:00,0.301,0.191,0.301,0.292,0.281,0.156,0.102,east-southeast,7.0,Yes
2018/09/21,13:10,0.303,0.190,0.300,0.289,0.283,0.155,0.102,east-southeast,6.2,Yes
2018/09/21,13:20,0.300,0.191,0.302,0.292,0.283,0.154,0.101,east-southeast,7.6,Yes
2018/09/21,13:30,0.303,0.191,0.299,0.290,0.282,0.153,0.099,east-southeast,6.0,Yes
2018/09/21,13:40,0.301,0.189,0.302,0.292,0.282,0.153,0.100,east-southeast,6.2,Yes
2018/09/21,13:50,0.301,0.190,0.299,0.291,0.280,0.152,0.098,east-southeast,6.2,Yes
2018/09/21,14:00,0.301,0.188,0.303,0.291,0.283,0.153,0.099,east-southeast,5.7,Yes
2018/09/21,14:10,0.301,0.191,0.299,0.291,0.280,0.153,0.098,east-southeast,5.2,Yes
2018/09/21,14:20,0.303,0.190,0.301,0.291,0.282,0.153,0.099,east-southeast,6.8,Yes
2018/09/21,14:30,0.300,0.192,0.302,0.293,0.283,0.153,0.100,east-southeast,6.7,Yes
2018/09/21,14:40,0.303,0.195,0.305,0.292,0.282,0.153,0.100,east,7.4,Yes
2018/09/21,14:50,0.304,0.195,0.302,0.295,0.284,0.155,0.102,east,7.5,Yes
2018/09/21,15:00,0.305,0.197,0.304,0.293,0.282,0.156,0.102,east,8.4,Yes
2018/09/21,15:10,0.304,0.196,0.306,0.296,0.286,0.156,0.104,east,7.7,Yes
2018/09/21,15:20,0.303,0.198,0.304,0.294,0.285,0.159,0.105,east,8.6,Yes
2018/09/21,15:30,0.305,0.197,0.304,0.294,0.288,0.159,0.107,east,8.8,Yes
2018/09/21,15:40,0.302,0.197,0.302,0.294,0.285,0.159,0.106,east,8.6,Yes
2018/09/21,15:50,0.305,0.196,0.305,0.294,0.287,0.158,0.106,east,8.1,Yes
2018/09/21,16:00,0.302,0.196,0.304,0.294,0.286,0.158,0.105,east,8.1,Yes
2018/09/21,16:10,0.303,0.193,0.303,0.294,0.285,0.158,0.103,east,7.0,Yes
2018/09/21,16:20,0.301,0.195,0.300,0.295,0.284,0.155,0.103,east,6.3,Yes
2018/09/21,16:30,0.302,0.193,0.302,0.291,0.283,0.156,0.102,east,6.3,Yes
2018/09/21,16:40,0.302,0.192,0.300,0.293,0.284,0.154,0.101,east,6.5,Yes
2018/09/21,16:50,0.297,0.191,0.300,0.290,0.281,0.154,0.100,east,6.8,Yes
2018/09/21,17:00,0.300,0.191,0.299,0.292,0.284,0.153,0.100,east,6.6,Yes
2018/09/21,17:10,0.298,0.191,0.299,0.290,0.281,0.153,0.100,east,6.8,Yes
2018/09/21,17:20,0.302,0.191,0.301,0.292,0.282,0.153,0.100,east,6.4,Yes
2018/09/21,17:30,0.298,0.190,0.299,0.289,0.283,0.151,0.099,east,7.1,Yes
2018/09/21,17:40,0.299,0.191,0.301,0.290,0.280,0.153,0.099,east-southeast,7.3,Yes
2018/09/21,17:50,0.301,0.189,0.298,0.291,0.282,0.151,0.097,east-southeast,6.0,Yes
2018/09/21,18:00,0.298,0.191,0.300,0.289,0.280,0.152,0.099,east-southeast,5.3,Yes
2018/09/21,18:10,0.301,0.191,0.299,0.290,0.282,0.153,0.099,east-southeast,5.1,Yes
2018/09/21,18:20,0.299,0.192,0.301,0.289,0.280,0.152,0.101,east-southeast,4.7,Yes
2018/09/21,18:30,0.302,0.193,0.301,0.293,0.285,0.155,0.101,southeast,7.7,Yes
2018/09/21,18:40,0.301,0.192,0.301,0.291,0.283,0.153,0.102,southeast,6.6,Yes
2018/09/21,18:50,0.301,0.193,0.301,0.292,0.282,0.155,0.101,east-southeast,7.3,Yes
2018/09/21,19:00,0.301,0.192,0.300,0.291,0.283,0.153,0.100,east-southeast,6.7,Yes
2018/09/21,19:10,0.299,0.193,0.301,0.291,0.280,0.153,0.099,southeast,5.5,Yes
2018/09/21,19:20,0.302,0.191,0.301,0.292,0.283,0.154,0.100,southeast,7.2,Yes
2018/09/21,19:30,0.299,0.191,0.301,0.290,0.280,0.152,0.100,east-southeast,6.0,Yes
2018/09/21,19:40,0.301,0.190,0.297,0.292,0.282,0.153,0.098,east,5.7,Yes
2018/09/21,19:50,0.299,0.190,0.302,0.289,0.280,0.150,0.097,east-southeast,3.4,No
2018/09/21,20:00,0.300,0.187,0.298,0.290,0.281,0.151,0.096,east-southeast,4.2,Yes
2018/09/21,20:10,0.298,0.188,0.299,0.288,0.280,0.150,0.096,east-southeast,4.5,Yes
2018/09/21,20:20,0.297,0.187,0.298,0.290,0.278,0.150,0.096,southeast,4.7,Yes
2018/09/21,20:30,0.298,0.188,0.298,0.290,0.282,0.151,0.096,southeast,4.3,Yes
2018/09/21,20:40,0.296,0.187,0.300,0.290,0.278,0.150,0.096,east-southeast,3.3,Yes
2018/09/21,20:50,0.300,0.188,0.297,0.290,0.282,0.151,0.097,east,4.1,Yes
2018/09/21,21:00,0.297,0.187,0.299,0.286,0.279,0.151,0.098,southeast,2.8,Yes
2018/09/21,21:10,0.296,0.187,0.296,0.290,0.279,0.150,0.097,east-southeast,4.3,Yes
2018/09/21,21:20,0.298,0.186,0.299,0.287,0.279,0.152,0.096,east-southeast,3.5,Yes
2018/09/21,21:30,0.295,0.186,0.296,0.290,0.279,0.150,0.095,east,3.1,Yes
2018/09/21,21:40,0.297,0.187,0.297,0.289,0.280,0.150,0.095,-,CALM,Yes
2018/09/21,21:50,0.294,0.186,0.296,0.287,0.277,0.150,0.096,northeast,2.7,Yes
2018/09/21,22:00,0.298,0.187,0.297,0.289,0.280,0.150,0.095,east-southeast,2.5,Yes
2018/09/21,22:10,0.296,0.186,0.297,0.287,0.279,0.151,0.095,-,CALM,Yes
2018/09/21,22:20,0.298,0.187,0.295,0.288,0.278,0.150,0.095,northeast,2.8,Yes
2018/09/21,22:30,0.298,0.186,0.298,0.286,0.280,0.150,0.096,northeast,4.0,Yes
2018/09/21,22:40,0.295,0.188,0.296,0.288,0.278,0.150,0.095,-,CALM,Yes
2018/09/21,22:50,0.298,0.188,0.298,0.287,0.282,0.149,0.096,northeast,3.8,Yes
2018/09/21,23:00,0.295,0.187,0.296,0.286,0.279,0.150,0.096,east-northeast,3.3,Yes
2018/09/21,23:10,0.296,0.188,0.296,0.288,0.279,0.150,0.096,northeast,4.7,Yes
2018/09/21,23:20,0.296,0.187,0.297,0.285,0.279,0.150,0.096,north-northeast,5.6,Yes
2018/09/21,23:30,0.296,0.189,0.297,0.288,0.277,0.150,0.096,-,CALM,Yes
2018/09/21,23:40,0.297,0.188,0.299,0.287,0.281,0.150,0.096,-,CALM,Yes
2018/09/21,23:50,0.294,0.188,0.295,0.287,0.279,0.150,0.095,-,CALM,Yes
